Regional Weather Roundup
Issued by NWS

Home | Current Version | Previous Version | Graphics & Text | Print | Product List | Glossary On
Versions: 1 2 3 4 5 6 7 8 9 10 11 12 13 14 15 16 17 18 19 20 21 22 23 24 25 26 27 28 29 30 31 32 33 34 35 36 37 38 39 40 41 42 43 44 45 46 47 48 49 50
000
ASUS45 KCYS 231810
RWRWY

WYOMING REGIONAL WEATHER ROUNDUP
NATIONAL WEATHER SERVICE CHEYENNE WY
1200 PM MDT WED JUL 23 2014

NOTE:  "FAIR" INDICATES FEW OR NO CLOUDS BELOW 12,000 FEET
WITH NO SIGNIFICANT WEATHER AND/OR OBSTRUCTIONS TO VISIBILITY.

WYZ001-231900-
YELLOWSTONE NATIONAL PARK

CITY           SKY/WX    TMP DP  RH WIND       PRES   REMARKS
LK YELLOWSTONE   N/A     76  35  22 VRB7      30.42F
6HR MIN TEMP:  49; 6HR MAX TEMP:  76;

W YELLOWSTONE  NOT AVBL

$$
WYZ002>013-054>058-071-098>099-231900-
NORTHERN WYOMING

CITY           SKY/WX    TMP DP  RH WIND       PRES   REMARKS
JACKSON        SUNNY     81  45  28 CALM      30.31F
CODY           SUNNY    N/A N/A N/A S6        30.16F
GREYBULL       SUNNY     86  52  30 SE7       30.11F
6HR MIN TEMP:  60; 6HR MAX TEMP:  86;

WORLAND        SUNNY     86  52  30 NW5       30.13F
6HR MIN TEMP:  58; 6HR MAX TEMP:  87;

SHERIDAN       SUNNY     83  57  41 S6        30.13F
6HR MIN TEMP:  62; 6HR MAX TEMP:  83;

BUFFALO        SUNNY     84  60  44 SE12      30.21F
6HR MIN TEMP:  61; 6HR MAX TEMP:  84;

GILLETTE       SUNNY     83  62  49 SE17      30.21F
6HR MIN TEMP:  66; 6HR MAX TEMP:  83;

HULETT         FAIR      81  61  50 MISG      30.25
NEWCASTLE      FAIR      82  55  39 SE22      30.25

$$
WYZ014>020-022>026-101>103-231900-
CENTRAL WYOMING

CITY           SKY/WX    TMP DP  RH WIND       PRES   REMARKS
BIG PINEY      SUNNY     83  32  16 S9        30.37F
6HR MIN TEMP:  42; 6HR MAX TEMP:  83;

PINEDALE       CLEAR     82  28  14 W7        30.38F
DUBOIS         FAIR      77  37  24 NE3       30.35F
LANDER         SUNNY     82  50  32 VRB3      30.25F
6HR MIN TEMP:  61; 6HR MAX TEMP:  82;

RIVERTON       SUNNY     80  49  33 VRB7      30.25F
6HR MIN TEMP:  62; 6HR MAX TEMP:  81;

CASPER         SUNNY     84  56  38 SE6       30.24F
6HR MIN TEMP:  53; 6HR MAX TEMP:  84;

DOUGLAS        SUNNY     81  62  52 SE24G32   30.25F
6HR MIN TEMP:  65; 6HR MAX TEMP:  81;


$$
WYZ021-027>030-104>119-231900-
SOUTHERN WYOMING

CITY           SKY/WX    TMP DP  RH WIND       PRES   REMARKS
EVANSTON       MOSUNNY   85  37  18 SW15G22   30.38F
6HR MIN TEMP:  58; 6HR MAX TEMP:  85;

KEMMERER       CLEAR     84  28  13 SW5       30.39F
FORT BRIDGER   FAIR      90  32  12 W16G23    30.38
ROCK SPRINGS   SUNNY     89  23   9 VRB7      30.34F
6HR MIN TEMP:  58; 6HR MAX TEMP:  89;

DIXON          FAIR      92  33  12 SW12G20   30.39F
RAWLINS        SUNNY     93  28  10 S16G26    30.35F
6HR MIN TEMP:  51; 6HR MAX TEMP:  93;

SARATOGA       FAIR      88  32  13 SW3       30.39F
LARAMIE        SUNNY     82  52  35 S13G20    30.42F
6HR MIN TEMP:  56; 6HR MAX TEMP:  82;

CHEYENNE       MOSUNNY   75  60  59 S15G26    30.40F
6HR MIN TEMP:  62; 6HR MAX TEMP:  75;

TORRINGTON     PTSUNNY   80  64  58 S21G31    30.27F
6HR MIN TEMP:  66; 6HR MAX TEMP:  80;

PINE BLUFFS    MOCLDY    77  61  57 S12G20    30.36F

$$



USA.gov is the U.S. government's official web portal to all federal, state and local government web resources and services.